^^
Station Historical Data
Daily Summary for February 11, 2018 Units:  Both    English   Metric
« Previous Day
Next Day »
Daily Weekly Monthly Yearly Custom
  High: Low: Average:
Temperature: TemperatureC °F /  -17.8 °C -7.9 °F /  -22.2 °C -4.7 °F /  -20.4 °C
Dew Point: DewpointC °F /  -17.8 °C -8.9 °F /  -22.7 °C -5.6 °F /  -20.9 °C
Humidity: Humidity% 92% 93%
Wind Speed: WindSpeedKMHmph /  0km/h - 0.6mph /  1km/h
Wind Gust: WindSpeedGustKMHmph /  0km/h - -
Wind- - East
Pressure: PressurehPa in /  0 hPa 1008.7 in /  34154.6 hPa -
Precipitation: 0.8 in /  20.32 mm    
Historical Graphs
 
 
Tabular Data for February 11, 2018
Time Temperature Dew Point Pressure Wind Wind Speed Wind Gust Humidity Rainfall Rate (Hourly) solar Conditions
TemperatureC °F /  -17.8 °C DewpointC °F /  -17.8 °C PressurehPain /  0hPa Calm     Humidity% HourlyPrecipMMin /  0mm SoftwareType W/m2 Conditions
00:00 -7.9 °F /  -22.2 °C -8.9 °F /  -22.7 °C 1016.8in /  34428.8hPa Calm     93% 0.0in /  0mm WeatherDisplay:10.37 W/m2 FEW
00:05 -7.9 °F /  -22.2 °C -8.9 °F /  -22.7 °C 1016.8in /  34428.8hPa Calm     93% 0.0in /  0mm WeatherDisplay:10.37 W/m2 FEW
00:10 -7.9 °F /  -22.2 °C -8.9 °F /  -22.7 °C 1016.8in /  34428.8hPa Calm     93% 0.0in /  0mm WeatherDisplay:10.37 W/m2 FEW
00:15 -7.9 °F /  -22.2 °C -8.9 °F /  -22.7 °C 1016.5in /  34418.7hPa Calm     93% 0.0in /  0mm WeatherDisplay:10.37 W/m2 FEW
00:20 -7.9 °F /  -22.2 °C -8.8 °F /  -22.7 °C 1016.5in /  34418.7hPa Calm     93% 0.0in /  0mm WeatherDisplay:10.37 W/m2 FEW
00:25 -7.8 °F /  -22.1 °C -8.8 °F /  -22.7 °C 1016.5in /  34418.7hPa Calm     93% 0.0in /  0mm WeatherDisplay:10.37 W/m2 FEW
00:30 -7.8 °F /  -22.1 °C -8.8 °F /  -22.7 °C 1016.5in /  34418.7hPa Calm     93% 0.0in /  0mm WeatherDisplay:10.37 W/m2 FEW
00:35 -7.8 °F /  -22.1 °C -8.7 °F /  -22.6 °C 1016.5in /  34418.7hPa Calm     93% 0.0in /  0mm WeatherDisplay:10.37 W/m2 FEW
00:40 -7.7 °F /  -22.1 °C -8.7 °F /  -22.6 °C 1016.5in /  34418.7hPa Calm     93% 0.0in /  0mm WeatherDisplay:10.37 W/m2 FEW
00:45 -7.7 °F /  -22.1 °C -8.7 °F /  -22.6 °C 1016.5in /  34418.7hPa Calm     93% 0.0in /  0mm WeatherDisplay:10.37 W/m2 FEW
00:50 -7.7 °F /  -22.1 °C -8.7 °F /  -22.6 °C 1016.5in /  34418.7hPa Calm     93% 0.0in /  0mm WeatherDisplay:10.37 W/m2 FEW
00:55 -7.6 °F /  -22 °C -8.6 °F /  -22.6 °C 1016.5in /  34418.7hPa Calm     93% 0.0in /  0mm WeatherDisplay:10.37 W/m2 FEW
01:00 -7.6 °F /  -22 °C -8.5 °F /  -22.5 °C 1016.5in /  34418.7hPa Calm     93% 0.0in /  0mm WeatherDisplay:10.37 W/m2 FEW
01:05 -7.5 °F /  -21.9 °C -8.3 °F /  -22.4 °C 1016.5in /  34418.7hPa Calm     94% 0.0in /  0mm WeatherDisplay:10.37 W/m2 FEW
01:10 -7.5 °F /  -21.9 °C -8.3 °F /  -22.4 °C 1016.5in /  34418.7hPa Calm     94% 0.0in /  0mm WeatherDisplay:10.37 W/m2 FEW
01:15 -7.5 °F /  -21.9 °C -8.4 °F /  -22.4 °C 1016.5in /  34418.7hPa Calm     93% 0.0in /  0mm WeatherDisplay:10.37 W/m2 FEW
01:20 -7.4 °F /  -21.9 °C -8.4 °F /  -22.4 °C 1016.5in /  34418.7hPa Calm     93% 0.0in /  0mm WeatherDisplay:10.37 W/m2 FEW
01:25 -7.4 °F /  -21.9 °C -8.3 °F /  -22.4 °C 1016.5in /  34418.7hPa Calm     93% 0.0in /  0mm WeatherDisplay:10.37 W/m2 FEW
01:30 -7.3 °F /  -21.8 °C -8.3 °F /  -22.4 °C 1016.1in /  34405.1hPa Calm     93% 0.0in /  0mm WeatherDisplay:10.37 W/m2 FEW
01:35 -7.3 °F /  -21.8 °C -8.2 °F /  -22.3 °C 1016.1in /  34405.1hPa Calm     93% 0.0in /  0mm WeatherDisplay:10.37 W/m2 FEW
01:40 -7.3 °F /  -21.8 °C -8.1 °F /  -22.3 °C 1016.1in /  34405.1hPa Calm     94% 0.0in /  0mm WeatherDisplay:10.37 W/m2 FEW
01:45 -7.2 °F /  -21.8 °C -8.0 °F /  -22.2 °C 1016.1in /  34405.1hPa Calm     94% 0.0in /  0mm WeatherDisplay:10.37 W/m2 FEW
01:50 -7.2 °F /  -21.8 °C -7.9 °F /  -22.2 °C 1016.1in /  34405.1hPa East 0.3mph /  0.5km/h 3.2mph /  5.1km/h 94% 0.0in /  0mm WeatherDisplay:10.37 W/m2 FEW
01:55 -7.1 °F /  -21.7 °C -8.0 °F /  -22.2 °C 1016.1in /  34405.1hPa Calm     93% 0.0in /  0mm WeatherDisplay:10.37 W/m2 FEW
02:00 -7.1 °F /  -21.7 °C -8.0 °F /  -22.2 °C 1016.1in /  34405.1hPa Calm   1.9mph /  3.1km/h 93% 0.0in /  0mm WeatherDisplay:10.37 W/m2 FEW
02:05 -7.0 °F /  -21.7 °C -7.9 °F /  -22.2 °C 1015.8in /  34395hPa Calm     93% 0.0in /  0mm WeatherDisplay:10.37 W/m2 FEW
02:10 -6.9 °F /  -21.6 °C -7.9 °F /  -22.2 °C 1015.8in /  34395hPa Calm     93% 0.0in /  0mm WeatherDisplay:10.37 W/m2 FEW
02:15 -6.9 °F /  -21.6 °C -7.9 °F /  -22.2 °C 1015.8in /  34395hPa East 0.3mph /  0.5km/h 3.7mph /  6km/h 93% 0.0in /  0mm WeatherDisplay:10.37 W/m2 FEW
02:20 -6.9 °F /  -21.6 °C -7.7 °F /  -22.1 °C 1015.8in /  34395hPa Calm   3.7mph /  6km/h 94% 0.0in /  0mm WeatherDisplay:10.37 W/m2 FEW
02:25 -6.8 °F /  -21.6 °C -7.6 °F /  -22 °C 1015.8in /  34395hPa Calm     94% 0.0in /  0mm WeatherDisplay:10.37 W/m2 FEW
02:30 -6.8 °F /  -21.6 °C -7.6 °F /  -22 °C 1015.8in /  34395hPa Calm   1.6mph /  2.6km/h 94% 0.0in /  0mm WeatherDisplay:10.37 W/m2 FEW
02:35 -6.8 °F /  -21.6 °C -7.6 °F /  -22 °C 1015.5in /  34384.8hPa Calm     94% 0.0in /  0mm WeatherDisplay:10.37 W/m2 FEW
02:40 -6.8 °F /  -21.6 °C -7.6 °F /  -22 °C 1015.5in /  34384.8hPa East 3.5mph /  5.6km/h 7.4mph /  11.9km/h 94% 0.0in /  0mm WeatherDisplay:10.37 W/m2 FEW
02:45 -6.7 °F /  -21.5 °C -7.7 °F /  -22.1 °C 1015.5in /  34384.8hPa East 1.8mph /  2.9km/h 3.2mph /  5.1km/h 93% 0.0in /  0mm WeatherDisplay:10.37 W/m2 FEW
02:50 -6.7 °F /  -21.5 °C -7.7 °F /  -22.1 °C 1015.5in /  34384.8hPa Calm   3.2mph /  5.1km/h 93% 0.0in /  0mm WeatherDisplay:10.37 W/m2 FEW
02:55 -6.7 °F /  -21.5 °C -7.6 °F /  -22 °C 1015.5in /  34384.8hPa Calm   5.6mph /  9km/h 93% 0.0in /  0mm WeatherDisplay:10.37 W/m2 FEW
03:00 -6.7 °F /  -21.5 °C -7.6 °F /  -22 °C 1015.5in /  34384.8hPa East 1.0mph /  1.6km/h 5.6mph /  9km/h 93% 0.0in /  0mm WeatherDisplay:10.37 W/m2 FEW
03:05 -6.6 °F /  -21.4 °C -7.6 °F /  -22 °C 1015.5in /  34384.8hPa East 2.4mph /  3.9km/h 5.6mph /  9km/h 93% 0.0in /  0mm WeatherDisplay:10.37 W/m2 FEW
03:10 -6.6 °F /  -21.4 °C -7.5 °F /  -21.9 °C 1015.1in /  34371.3hPa Calm   1.9mph /  3.1km/h 93% 0.0in /  0mm WeatherDisplay:10.37 W/m2 FEW
03:15 -6.6 °F /  -21.4 °C -7.3 °F /  -21.8 °C 1015.1in /  34371.3hPa East 2.4mph /  3.9km/h 3.7mph /  6km/h 94% 0.0in /  0mm WeatherDisplay:10.37 W/m2 FEW
03:20 -6.6 °F /  -21.4 °C -7.3 °F /  -21.8 °C 1015.1in /  34371.3hPa East 1.3mph /  2.1km/h 5.6mph /  9km/h 94% 0.0in /  0mm WeatherDisplay:10.37 W/m2 FEW
03:25 -6.5 °F /  -21.4 °C -7.3 °F /  -21.8 °C 1015.1in /  34371.3hPa East 3.1mph /  5km/h 5.6mph /  9km/h 94% 0.0in /  0mm WeatherDisplay:10.37 W/m2 FEW
03:30 -6.4 °F /  -21.3 °C -7.3 °F /  -21.8 °C 1015.1in /  34371.3hPa East 2.3mph /  3.7km/h 3.7mph /  6km/h 94% 0.0in /  0mm WeatherDisplay:10.37 W/m2 FEW
03:36 -6.4 °F /  -21.3 °C -7.3 °F /  -21.8 °C 1015.1in /  34371.3hPa East 0.2mph /  0.3km/h 3.7mph /  6km/h 94% 0.0in /  0mm WeatherDisplay:10.37 W/m2 FEW
03:41 -6.4 °F /  -21.3 °C -7.2 °F /  -21.8 °C 1014.8in /  34361.1hPa Calm     94% 0.0in /  0mm WeatherDisplay:10.37 W/m2 FEW
03:46 -6.3 °F /  -21.3 °C -7.2 °F /  -21.8 °C 1014.8in /  34361.1hPa Calm     94% 0.0in /  0mm WeatherDisplay:10.37 W/m2 FEW
03:51 -6.3 °F /  -21.3 °C -7.3 °F /  -21.8 °C 1014.8in /  34361.1hPa East 0.5mph /  0.8km/h 3.7mph /  6km/h 93% 0.0in /  0mm WeatherDisplay:10.37 W/m2 FEW
03:56 -6.3 °F /  -21.3 °C -7.2 °F /  -21.8 °C 1014.8in /  34361.1hPa East 2.1mph /  3.4km/h 5.6mph /  9km/h 93% 0.0in /  0mm WeatherDisplay:10.37 W/m2 FEW
04:01 -6.3 °F /  -21.3 °C -7.1 °F /  -21.7 °C 1014.8in /  34361.1hPa East 1.6mph /  2.6km/h 5.6mph /  9km/h 94% 0.0in /  0mm WeatherDisplay:10.37 W/m2 FEW
04:06 -6.2 °F /  -21.2 °C -7.1 °F /  -21.7 °C 1014.4in /  34347.6hPa East 0.5mph /  0.8km/h 3.2mph /  5.1km/h 94% 0.0in /  0mm WeatherDisplay:10.37 W/m2 FEW
04:11 -6.2 °F /  -21.2 °C -7.0 °F /  -21.7 °C 1014.4in /  34347.6hPa Calm   1.9mph /  3.1km/h 94% 0.0in /  0mm WeatherDisplay:10.37 W/m2 FEW
04:16 -6.2 °F /  -21.2 °C -7.0 °F /  -21.7 °C 1014.4in /  34347.6hPa East 3.1mph /  5km/h 3.7mph /  6km/h 94% 0.0in /  0mm WeatherDisplay:10.37 W/m2 FEW
04:21 -6.1 °F /  -21.2 °C -6.9 °F /  -21.6 °C 1014.4in /  34347.6hPa East 1.3mph /  2.1km/h 3.7mph /  6km/h 94% 0.0in /  0mm WeatherDisplay:10.37 W/m2 FEW
04:26 -6.1 °F /  -21.2 °C -6.9 °F /  -21.6 °C 1014.4in /  34347.6hPa East 2.3mph /  3.7km/h 5.6mph /  9km/h 94% 0.0in /  0mm WeatherDisplay:10.37 W/m2 FEW
04:31 -6.1 °F /  -21.2 °C -7.0 °F /  -21.7 °C 1014.4in /  34347.6hPa East 3.2mph /  5.1km/h 5.6mph /  9km/h 93% 0.0in /  0mm WeatherDisplay:10.37 W/m2 FEW
04:36 -6.0 °F /  -21.1 °C -6.8 °F /  -21.6 °C 1014.4in /  34347.6hPa East 2.6mph /  4.2km/h 5.6mph /  9km/h 94% 0.0in /  0mm WeatherDisplay:10.37 W/m2 FEW
04:41 -5.9 °F /  -21.1 °C -6.8 °F /  -21.6 °C 1014.1in /  34337.4hPa East 0.2mph /  0.3km/h 5.6mph /  9km/h 94% 0.0in /  0mm WeatherDisplay:10.37 W/m2 FEW
04:46 -5.9 °F /  -21.1 °C -6.8 °F /  -21.6 °C 1014.1in /  34337.4hPa Calm     94% 0.0in /  0mm WeatherDisplay:10.37 W/m2 FEW
04:51 -5.9 °F /  -21.1 °C -6.7 °F /  -21.5 °C 1014.4in /  34347.6hPa Calm     94% 0.0in /  0mm WeatherDisplay:10.37 W/m2 FEW
04:56 -5.8 °F /  -21 °C -6.7 °F /  -21.5 °C 1014.1in /  34337.4hPa Calm     94% 0.0in /  0mm WeatherDisplay:10.37 W/m2 FEW
05:01 -5.8 °F /  -21 °C -6.7 °F /  -21.5 °C 1014.1in /  34337.4hPa Calm     94% 0.0in /  0mm WeatherDisplay:10.37 W/m2 FEW
05:06 -5.8 °F /  -21 °C -6.6 °F /  -21.4 °C 1014.1in /  34337.4hPa East 2.6mph /  4.2km/h 5.6mph /  9km/h 94% 0.0in /  0mm WeatherDisplay:10.37 W/m2 FEW
05:11 -5.8 °F /  -21 °C -6.6 °F /  -21.4 °C 1014.1in /  34337.4hPa East 2.4mph /  3.9km/h 5.6mph /  9km/h 94% 0.0in /  0mm WeatherDisplay:10.37 W/m2 FEW
05:16 -5.8 °F /  -21 °C -6.7 °F /  -21.5 °C 1014.1in /  34337.4hPa East 3.4mph /  5.5km/h 5.6mph /  9km/h 93% 0.0in /  0mm WeatherDisplay:10.37 W/m2 FEW
05:21 -5.7 °F /  -20.9 °C -6.7 °F /  -21.5 °C 1014.1in /  34337.4hPa Calm     93% 0.0in /  0mm WeatherDisplay:10.37 W/m2 FEW
05:26 -5.7 °F /  -20.9 °C -6.7 °F /  -21.5 °C 1014.1in /  34337.4hPa Calm     93% 0.0in /  0mm WeatherDisplay:10.37 W/m2 FEW
05:31 -5.7 °F /  -20.9 °C -6.7 °F /  -21.5 °C 1014.1in /  34337.4hPa East 0.3mph /  0.5km/h 3.7mph /  6km/h 93% 0.0in /  0mm WeatherDisplay:10.37 W/m2 FEW
05:36 -5.7 °F /  -20.9 °C -6.7 °F /  -21.5 °C 1014.1in /  34337.4hPa Calm   1.9mph /  3.1km/h 93% 0.0in /  0mm WeatherDisplay:10.37 W/m2 FEW
05:41 -5.7 °F /  -20.9 °C -6.5 °F /  -21.4 °C 1014.1in /  34337.4hPa Calm     94% 0.0in /  0mm WeatherDisplay:10.37 W/m2 FEW
05:46 -5.7 °F /  -20.9 °C -6.5 °F /  -21.4 °C 1014.1in /  34337.4hPa East 1.3mph /  2.1km/h 3.7mph /  6km/h 94% 0.0in /  0mm WeatherDisplay:10.37 W/m2 FEW
05:51 -5.7 °F /  -20.9 °C -6.5 °F /  -21.4 °C 1013.8in /  34327.3hPa Calm     94% 0.0in /  0mm WeatherDisplay:10.37 W/m2 FEW
05:56 -5.6 °F /  -20.9 °C -6.6 °F /  -21.4 °C 1013.8in /  34327.3hPa Calm     93% 0.0in /  0mm WeatherDisplay:10.37 W/m2 FEW
06:01 -5.6 °F /  -20.9 °C -6.6 °F /  -21.4 °C 1013.8in /  34327.3hPa Calm     93% 0.0in /  0mm WeatherDisplay:10.37 W/m2 FEW
06:06 -5.6 °F /  -20.9 °C -6.5 °F /  -21.4 °C 1013.8in /  34327.3hPa East 0.5mph /  0.8km/h 3.7mph /  6km/h 93% 0.0in /  0mm WeatherDisplay:10.37 W/m2 FEW
06:11 -5.6 °F /  -20.9 °C -6.5 °F /  -21.4 °C 1013.8in /  34327.3hPa East 0.6mph /  1km/h 5.6mph /  9km/h 93% 0.0in /  0mm WeatherDisplay:10.37 W/m2 FEW
06:16 -5.6 °F /  -20.9 °C -6.5 °F /  -21.4 °C 1013.8in /  34327.3hPa East 4.3mph /  6.9km/h 5.6mph /  9km/h 93% 0.0in /  0mm WeatherDisplay:10.37 W/m2 FEW
06:21 -5.6 °F /  -20.9 °C -6.5 °F /  -21.4 °C 1013.8in /  34327.3hPa East 1.6mph /  2.6km/h 4.8mph /  7.7km/h 93% 0.0in /  0mm WeatherDisplay:10.37 W/m2 FEW
06:26 -5.6 °F /  -20.9 °C -6.5 °F /  -21.4 °C 1013.8in /  34327.3hPa Calm     93% 0.0in /  0mm WeatherDisplay:10.37 W/m2 FEW
06:31 -5.6 °F /  -20.9 °C -6.5 °F /  -21.4 °C 1013.8in /  34327.3hPa ENE 4.0mph /  6.4km/h 5.6mph /  9km/h 93% 0.0in /  0mm WeatherDisplay:10.37 W/m2 FEW
06:36 -5.6 °F /  -20.9 °C -6.6 °F /  -21.4 °C 1013.8in /  34327.3hPa ENE 3.1mph /  5km/h 5.6mph /  9km/h 93% 0.0in /  0mm WeatherDisplay:10.37 W/m2 FEW
06:41 -5.6 °F /  -20.9 °C -6.6 °F /  -21.4 °C 1013.8in /  34327.3hPa ENE 1.3mph /  2.1km/h 5.6mph /  9km/h 93% 0.0in /  0mm WeatherDisplay:10.37 W/m2 FEW
06:46 -5.6 °F /  -20.9 °C -6.6 °F /  -21.4 °C 1013.4in /  34313.7hPa Calm     93% 0.0in /  0mm WeatherDisplay:10.37 W/m2 FEW
06:56 -5.6 °F /  -20.9 °C -6.6 °F /  -21.4 °C 1013.4in /  34313.7hPa Calm     93% 0.0in /  0mm WeatherDisplay:10.37 W/m2 FEW
07:01 -5.6 °F /  -20.9 °C -6.6 °F /  -21.4 °C 1013.4in /  34313.7hPa ENE 2.3mph /  3.7km/h 5.6mph /  9km/h 93% 0.0in /  0mm WeatherDisplay:10.37 W/m2 FEW
07:06 -5.6 °F /  -20.9 °C -6.6 °F /  -21.4 °C 1013.4in /  34313.7hPa ENE 1.9mph /  3.1km/h 3.7mph /  6km/h 93% 0.0in /  0mm WeatherDisplay:10.37 W/m2 FEW
07:11 -5.6 °F /  -20.9 °C -6.5 °F /  -21.4 °C 1013.4in /  34313.7hPa ENE 0.5mph /  0.8km/h 4.8mph /  7.7km/h 93% 0.3in /  7.62mm WeatherDisplay:10.37 W/m2 RA
07:16 -5.6 °F /  -20.9 °C -6.5 °F /  -21.4 °C 1013.4in /  34313.7hPa ENE 2.9mph /  4.7km/h 5.6mph /  9km/h 93% 0.3in /  7.62mm WeatherDisplay:10.37 W/m2 RA
07:21 -5.6 °F /  -20.9 °C -6.5 °F /  -21.4 °C 1013.4in /  34313.7hPa Calm   5.6mph /  9km/h 93% 0.3in /  7.62mm WeatherDisplay:10.37 W/m2 FEW
07:26 -5.6 °F /  -20.9 °C -6.5 °F /  -21.4 °C 1013.4in /  34313.7hPa Calm     93% 0.3in /  7.62mm WeatherDisplay:10.37 W/m2 FEW
07:31 -5.6 °F /  -20.9 °C -6.5 °F /  -21.4 °C 1013.4in /  34313.7hPa Calm     93% 0.3in /  7.62mm WeatherDisplay:10.37 W/m2 FEW
07:36 -5.6 °F /  -20.9 °C -6.5 °F /  -21.4 °C 1013.4in /  34313.7hPa Calm     93% 0.3in /  7.62mm WeatherDisplay:10.37 W/m2 FEW
07:41 -5.6 °F /  -20.9 °C -6.5 °F /  -21.4 °C 1013.1in /  34303.6hPa Calm     93% 0.3in /  7.62mm WeatherDisplay:10.37 W/m2 FEW
07:46 -5.5 °F /  -20.8 °C -6.4 °F /  -21.3 °C 1013.1in /  34303.6hPa Calm     93% 0.3in /  7.62mm WeatherDisplay:10.37 W/m2 FEW
07:51 -5.5 °F /  -20.8 °C -6.4 °F /  -21.3 °C 1013.1in /  34303.6hPa Calm     93% 0.3in /  7.62mm WeatherDisplay:10.37 W/m2 FEW
07:56 -5.5 °F /  -20.8 °C -6.4 °F /  -21.3 °C 1013.1in /  34303.6hPa Calm     93% 0.3in /  7.62mm WeatherDisplay:10.37 W/m2 FEW
08:01 -5.4 °F /  -20.8 °C -6.3 °F /  -21.3 °C 1013.1in /  34303.6hPa ENE 0.3mph /  0.5km/h 5.6mph /  9km/h 94% 0.3in /  7.62mm WeatherDisplay:10.37 W/m2 FEW
08:06 -5.4 °F /  -20.8 °C -6.3 °F /  -21.3 °C 1013.1in /  34303.6hPa Calm     94% 0.3in /  7.62mm WeatherDisplay:10.37 W/m2 FEW
08:11 -5.4 °F /  -20.8 °C -6.3 °F /  -21.3 °C 1013.1in /  34303.6hPa ENE 0.5mph /  0.8km/h 3.7mph /  6km/h 94% 0.0in /  0mm WeatherDisplay:10.37 W/m2 FEW
08:16 -5.4 °F /  -20.8 °C -6.3 °F /  -21.3 °C 1012.8in /  34293.4hPa Calm   5.6mph /  9km/h 94% 0.0in /  0mm WeatherDisplay:10.37 W/m2 FEW
08:21 -5.4 °F /  -20.8 °C -6.2 °F /  -21.2 °C 1012.8in /  34293.4hPa Calm     94% 0.0in /  0mm WeatherDisplay:10.37 W/m2 FEW
08:26 -5.4 °F /  -20.8 °C -6.2 °F /  -21.2 °C 1012.8in /  34293.4hPa ENE 0.8mph /  1.3km/h 5.6mph /  9km/h 94% 0.0in /  0mm WeatherDisplay:10.37 W/m2 FEW
08:31 -5.3 °F /  -20.7 °C -6.2 °F /  -21.2 °C 1012.8in /  34293.4hPa Calm     94% 0.0in /  0mm WeatherDisplay:10.37 W/m2 FEW
08:36 -5.3 °F /  -20.7 °C -6.2 °F /  -21.2 °C 1012.8in /  34293.4hPa ENE 1.4mph /  2.3km/h 3.7mph /  6km/h 94% 0.0in /  0mm WeatherDisplay:10.37 W/m2 FEW
08:37 -5.3 °F /  -20.7 °C -6.2 °F /  -21.2 °C 1012.8in /  34293.4hPa ENE 1.0mph /  1.6km/h 5.6mph /  9km/h 94% 0.0in /  0mm WeatherDisplay:10.37 W/m2 FEW
08:42 -5.3 °F /  -20.7 °C -6.2 °F /  -21.2 °C 1012.8in /  34293.4hPa Calm     94% 0.0in /  0mm WeatherDisplay:10.37 W/m2 FEW
08:47 -5.3 °F /  -20.7 °C -6.1 °F /  -21.2 °C 1012.8in /  34293.4hPa ENE 1.0mph /  1.6km/h 3.7mph /  6km/h 94% 0.0in /  0mm WeatherDisplay:10.37 W/m2 FEW
08:52 -5.2 °F /  -20.7 °C -6.1 °F /  -21.2 °C 1012.8in /  34293.4hPa ENE 0.8mph /  1.3km/h 1.9mph /  3.1km/h 94% 0.0in /  0mm WeatherDisplay:10.37 W/m2 FEW
08:57 -5.2 °F /  -20.7 °C -6.0 °F /  -21.1 °C 1012.8in /  34293.4hPa ENE 2.4mph /  3.9km/h 5.6mph /  9km/h 94% 0.0in /  0mm WeatherDisplay:10.37 W/m2 FEW
09:02 -5.2 °F /  -20.7 °C -6.0 °F /  -21.1 °C 1012.8in /  34293.4hPa Calm     94% 0.0in /  0mm WeatherDisplay:10.37 W/m2 FEW
09:07 -5.2 °F /  -20.7 °C -6.0 °F /  -21.1 °C 1012.8in /  34293.4hPa ENE 1.1mph /  1.8km/h 3.2mph /  5.1km/h 94% 0.0in /  0mm WeatherDisplay:10.37 W/m2 FEW
09:12 -5.1 °F /  -20.6 °C -5.9 °F /  -21.1 °C 1012.8in /  34293.4hPa ENE 1.6mph /  2.6km/h 3.7mph /  6km/h 94% 0.0in /  0mm WeatherDisplay:10.37 W/m2 FEW
09:17 -5.1 °F /  -20.6 °C -5.9 °F /  -21.1 °C 1012.8in /  34293.4hPa Calm     94% 0.0in /  0mm WeatherDisplay:10.37 W/m2 FEW
09:22 -5.1 °F /  -20.6 °C -5.9 °F /  -21.1 °C 1012.8in /  34293.4hPa ENE 0.5mph /  0.8km/h 3.7mph /  6km/h 94% 0.0in /  0mm WeatherDisplay:10.37 W/m2 FEW
09:27 -5.1 °F /  -20.6 °C -5.9 °F /  -21.1 °C 1012.8in /  34293.4hPa ENE 0.8mph /  1.3km/h 3.7mph /  6km/h 94% 0.0in /  0mm WeatherDisplay:10.37 W/m2 FEW
09:32 -5.0 °F /  -20.6 °C -5.1 °F /  -20.6 °C 1012.8in /  34293.4hPa ENE 0.5mph /  0.8km/h 3.7mph /  6km/h 99% 0.3in /  7.62mm WeatherDisplay:10.37 W/m2 RA
09:37 -4.9 °F /  -20.5 °C -5.8 °F /  -21 °C 1012.4in /  34279.9hPa ENE 1.0mph /  1.6km/h 5.6mph /  9km/h 94% 0.3in /  7.62mm WeatherDisplay:10.37 W/m2 RA
09:42 -4.9 °F /  -20.5 °C -5.8 °F /  -21 °C 1012.4in /  34279.9hPa Calm     94% 0.3in /  7.62mm WeatherDisplay:10.37 W/m2 FEW
09:47 -4.9 °F /  -20.5 °C -5.7 °F /  -20.9 °C 1012.8in /  34293.4hPa Calm     94% 0.3in /  7.62mm WeatherDisplay:10.37 W/m2 FEW
09:52 -4.8 °F /  -20.4 °C -5.7 °F /  -20.9 °C 1012.8in /  34293.4hPa ENE 1.1mph /  1.8km/h 3.7mph /  6km/h 94% 0.3in /  7.62mm WeatherDisplay:10.37 W/m2 FEW
09:57 -4.8 °F /  -20.4 °C -5.6 °F /  -20.9 °C 1012.8in /  34293.4hPa ENE 0.3mph /  0.5km/h 3.2mph /  5.1km/h 94% 0.3in /  7.62mm WeatherDisplay:10.37 W/m2 FEW
10:02 -4.7 °F /  -20.4 °C -5.6 °F /  -20.9 °C 1012.8in /  34293.4hPa ENE 2.6mph /  4.2km/h 5.6mph /  9km/h 94% 0.3in /  7.62mm WeatherDisplay:10.37 W/m2 FEW
10:07 -4.7 °F /  -20.4 °C -5.6 °F /  -20.9 °C 1012.8in /  34293.4hPa Calm   3.7mph /  6km/h 94% 0.3in /  7.62mm WeatherDisplay:10.37 W/m2 FEW
10:12 -4.7 °F /  -20.4 °C -5.5 °F /  -20.8 °C 1012.8in /  34293.4hPa ENE 1.8mph /  2.9km/h 3.7mph /  6km/h 94% 0.3in /  7.62mm WeatherDisplay:10.37 W/m2 FEW
10:17 -4.6 °F /  -20.3 °C -5.6 °F /  -20.9 °C 1012.4in /  34279.9hPa ENE 0.8mph /  1.3km/h 3.7mph /  6km/h 93% 0.3in /  7.62mm WeatherDisplay:10.37 W/m2 FEW
10:22 -4.6 °F /  -20.3 °C -5.5 °F /  -20.8 °C 1012.4in /  34279.9hPa Calm     93% 0.3in /  7.62mm WeatherDisplay:10.37 W/m2 FEW
10:27 -4.5 °F /  -20.3 °C -5.4 °F /  -20.8 °C 1012.4in /  34279.9hPa ENE 0.2mph /  0.3km/h 5.6mph /  9km/h 93% 0.3in /  7.62mm WeatherDisplay:10.37 W/m2 FEW
10:32 -4.4 °F /  -20.2 °C -5.4 °F /  -20.8 °C 1012.4in /  34279.9hPa Calm     93% 0.0in /  0mm WeatherDisplay:10.37 W/m2 FEW
10:37 -4.4 °F /  -20.2 °C -5.2 °F /  -20.7 °C 1012.4in /  34279.9hPa Calm     94% 0.0in /  0mm WeatherDisplay:10.37 W/m2 FEW
10:42 -4.3 °F /  -20.2 °C -5.3 °F /  -20.7 °C 1012.4in /  34279.9hPa ENE 0.8mph /  1.3km/h 5.6mph /  9km/h 93% 0.0in /  0mm WeatherDisplay:10.37 W/m2 FEW
10:47 -4.3 °F /  -20.2 °C -5.2 °F /  -20.7 °C 1012.4in /  34279.9hPa Calm     93% 0.0in /  0mm WeatherDisplay:10.37 W/m2 FEW
10:52 -4.2 °F /  -20.1 °C -5.1 °F /  -20.6 °C 1012.1in /  34269.7hPa Calm   5.6mph /  9km/h 94% 0.0in /  0mm WeatherDisplay:10.37 W/m2 FEW
10:57 -4.2 °F /  -20.1 °C -5.0 °F /  -20.6 °C 1012.1in /  34269.7hPa ENE 0.6mph /  1km/h   94% 0.0in /  0mm WeatherDisplay:10.37 W/m2 FEW
11:02 -4.1 °F /  -20.1 °C -4.9 °F /  -20.5 °C 1012.1in /  34269.7hPa Calm     94% 0.0in /  0mm WeatherDisplay:10.37 W/m2 FEW
11:32 -3.8 °F /  -19.9 °C -4.8 °F /  -20.4 °C 1012.1in /  34269.7hPa Calm   3.2mph /  5.1km/h 93% 0.0in /  0mm WeatherDisplay:10.37 W/m2 FEW
11:37 -3.8 °F /  -19.9 °C -4.7 °F /  -20.4 °C 1012.1in /  34269.7hPa ENE 3.5mph /  5.6km/h 3.7mph /  6km/h 93% 0.0in /  0mm WeatherDisplay:10.37 W/m2 FEW
11:42 -3.7 °F /  -19.8 °C -4.7 °F /  -20.4 °C 1012.1in /  34269.7hPa Calm   3.7mph /  6km/h 93% 0.0in /  0mm WeatherDisplay:10.37 W/m2 FEW
11:47 -3.7 °F /  -19.8 °C -4.6 °F /  -20.3 °C 1011.7in /  34256.2hPa East 4.0mph /  6.4km/h 5.6mph /  9km/h 93% 0.0in /  0mm WeatherDisplay:10.37 W/m2 FEW
11:52 -3.6 °F /  -19.8 °C -4.6 °F /  -20.3 °C 1011.7in /  34256.2hPa Calm   1.9mph /  3.1km/h 93% 0.0in /  0mm WeatherDisplay:10.37 W/m2 FEW
11:57 -3.6 °F /  -19.8 °C -4.5 °F /  -20.3 °C 1011.7in /  34256.2hPa Calm     93% 0.0in /  0mm WeatherDisplay:10.37 W/m2 FEW
12:02 -3.6 °F /  -19.8 °C -4.5 °F /  -20.3 °C 1011.7in /  34256.2hPa Calm   5.6mph /  9km/h 93% 0.0in /  0mm WeatherDisplay:10.37 W/m2 FEW
12:07 -3.6 °F /  -19.8 °C -4.5 °F /  -20.3 °C 1011.7in /  34256.2hPa East 3.4mph /  5.5km/h 5.6mph /  9km/h 93% 0.0in /  0mm WeatherDisplay:10.37 W/m2 FEW
12:13 -3.6 °F /  -19.8 °C -4.5 °F /  -20.3 °C 1011.7in /  34256.2hPa East 1.6mph /  2.6km/h 5.6mph /  9km/h 93% 0.0in /  0mm WeatherDisplay:10.37 W/m2 FEW
12:18 -3.6 °F /  -19.8 °C -4.5 °F /  -20.3 °C 1011.7in /  34256.2hPa Calm     93% 0.0in /  0mm WeatherDisplay:10.37 W/m2 FEW
12:23 -3.6 °F /  -19.8 °C -4.5 °F /  -20.3 °C 1011.7in /  34256.2hPa Calm     93% 0.0in /  0mm WeatherDisplay:10.37 W/m2 FEW
12:28 -3.6 °F /  -19.8 °C -4.5 °F /  -20.3 °C 1011.4in /  34246hPa East 3.1mph /  5km/h 5.6mph /  9km/h 93% 0.0in /  0mm WeatherDisplay:10.37 W/m2 FEW
12:33 -3.6 °F /  -19.8 °C -4.5 °F /  -20.3 °C 1011.7in /  34256.2hPa Calm     93% 0.0in /  0mm WeatherDisplay:10.37 W/m2 FEW
12:38 -3.6 °F /  -19.8 °C -4.5 °F /  -20.3 °C 1011.7in /  34256.2hPa Calm     93% 0.0in /  0mm WeatherDisplay:10.37 W/m2 FEW
12:43 -3.6 °F /  -19.8 °C -4.5 °F /  -20.3 °C 1011.7in /  34256.2hPa Calm     93% 0.0in /  0mm WeatherDisplay:10.37 W/m2 FEW
12:48 -3.5 °F /  -19.7 °C -4.4 °F /  -20.2 °C 1011.4in /  34246hPa Calm   1.9mph /  3.1km/h 93% 0.0in /  0mm WeatherDisplay:10.37 W/m2 FEW
12:53 -3.5 °F /  -19.7 °C -4.4 °F /  -20.2 °C 1011.4in /  34246hPa Calm   5.6mph /  9km/h 93% 0.0in /  0mm WeatherDisplay:10.37 W/m2 FEW
12:58 -3.4 °F /  -19.7 °C -4.4 °F /  -20.2 °C 1011.4in /  34246hPa Calm     93% 0.0in /  0mm WeatherDisplay:10.37 W/m2 FEW
13:03 -3.4 °F /  -19.7 °C -4.4 °F /  -20.2 °C 1011.4in /  34246hPa Calm     93% 0.3in /  7.62mm WeatherDisplay:10.37 W/m2 RA
13:08 -3.4 °F /  -19.7 °C -4.4 °F /  -20.2 °C 1011.4in /  34246hPa Calm     93% 0.3in /  7.62mm WeatherDisplay:10.37 W/m2 RA
13:13 -3.4 °F /  -19.7 °C -4.3 °F /  -20.2 °C 1011.4in /  34246hPa East 1.1mph /  1.8km/h 1.6mph /  2.6km/h 93% 0.3in /  7.62mm WeatherDisplay:10.37 W/m2 FEW
13:18 -3.3 °F /  -19.6 °C -4.3 °F /  -20.2 °C 1011.4in /  34246hPa Calm     93% 0.3in /  7.62mm WeatherDisplay:10.37 W/m2 FEW
13:23 -3.3 °F /  -19.6 °C -4.3 °F /  -20.2 °C 1011.4in /  34246hPa Calm   5.6mph /  9km/h 93% 0.3in /  7.62mm WeatherDisplay:10.37 W/m2 FEW
13:28 -3.3 °F /  -19.6 °C -4.2 °F /  -20.1 °C 1011.1in /  34235.8hPa Calm   3.7mph /  6km/h 93% 0.3in /  7.62mm WeatherDisplay:10.37 W/m2 FEW
13:33 -3.2 °F /  -19.6 °C -4.2 °F /  -20.1 °C 1011.1in /  34235.8hPa ESE 3.9mph /  6.3km/h 13.0mph /  20.9km/h 93% 0.3in /  7.62mm WeatherDisplay:10.37 W/m2 FEW
13:38 -3.2 °F /  -19.6 °C -4.2 °F /  -20.1 °C 1011.1in /  34235.8hPa Calm     93% 0.3in /  7.62mm WeatherDisplay:10.37 W/m2 FEW
13:43 -3.2 °F /  -19.6 °C -4.1 °F /  -20.1 °C 1011.1in /  34235.8hPa ESE 0.3mph /  0.5km/h   93% 0.3in /  7.62mm WeatherDisplay:10.37 W/m2 FEW
13:48 -3.2 °F /  -19.6 °C -4.1 °F /  -20.1 °C 1011.1in /  34235.8hPa ESE 1.4mph /  2.3km/h   93% 0.3in /  7.62mm WeatherDisplay:10.37 W/m2 FEW
13:53 -3.1 °F /  -19.5 °C -4.1 °F /  -20.1 °C 1011.1in /  34235.8hPa ESE 1.6mph /  2.6km/h 3.2mph /  5.1km/h 93% 0.3in /  7.62mm WeatherDisplay:10.37 W/m2 FEW
13:58 -3.1 °F /  -19.5 °C -4.0 °F /  -20 °C 1011.1in /  34235.8hPa Calm     93% 0.3in /  7.62mm WeatherDisplay:10.37 W/m2 FEW
14:03 -3.0 °F /  -19.4 °C -4.0 °F /  -20 °C 1011.1in /  34235.8hPa Calm     93% 0.0in /  0mm WeatherDisplay:10.37 W/m2 FEW
14:08 -3.0 °F /  -19.4 °C -4.0 °F /  -20 °C 1011.1in /  34235.8hPa ESE 4.3mph /  6.9km/h 4.3mph /  6.9km/h 93% 0.0in /  0mm WeatherDisplay:10.37 W/m2 FEW
14:13 -2.9 °F /  -19.4 °C -3.9 °F /  -19.9 °C 1011.1in /  34235.8hPa Calm     93% 0.0in /  0mm WeatherDisplay:10.37 W/m2 FEW
14:18 -2.9 °F /  -19.4 °C -3.9 °F /  -19.9 °C 1011.1in /  34235.8hPa ESE 0.3mph /  0.5km/h   93% 0.0in /  0mm WeatherDisplay:10.37 W/m2 FEW
14:23 -2.9 °F /  -19.4 °C -3.9 °F /  -19.9 °C 1011.1in /  34235.8hPa ESE 2.7mph /  4.3km/h 3.2mph /  5.1km/h 93% 0.0in /  0mm WeatherDisplay:10.37 W/m2 FEW
14:28 -2.9 °F /  -19.4 °C -3.9 °F /  -19.9 °C 1010.7in /  34222.3hPa Calm   3.7mph /  6km/h 93% 0.0in /  0mm WeatherDisplay:10.37 W/m2 FEW
14:33 -2.9 °F /  -19.4 °C -3.9 °F /  -19.9 °C 1010.7in /  34222.3hPa Calm     93% 0.0in /  0mm WeatherDisplay:10.37 W/m2 FEW
14:38 -2.8 °F /  -19.3 °C -3.8 °F /  -19.9 °C 1010.7in /  34222.3hPa ESE 4.8mph /  7.7km/h 4.8mph /  7.7km/h 93% 0.0in /  0mm WeatherDisplay:10.37 W/m2 FEW
14:43 -2.9 °F /  -19.4 °C -4.0 °F /  -20 °C 1010.7in /  34222.3hPa ESE 1.9mph /  3.1km/h 9.3mph /  15km/h 92% 0.0in /  0mm WeatherDisplay:10.37 W/m2 FEW
14:48 -2.9 °F /  -19.4 °C -4.1 °F /  -20.1 °C 1010.7in /  34222.3hPa ESE 0.3mph /  0.5km/h 5.6mph /  9km/h 92% 0.0in /  0mm WeatherDisplay:10.37 W/m2 FEW
14:53 -2.9 °F /  -19.4 °C -4.1 °F /  -20.1 °C 1010.7in /  34222.3hPa ESE 2.3mph /  3.7km/h 6.4mph /  10.3km/h 92% 0.0in /  0mm WeatherDisplay:10.37 W/m2 FEW
14:58 -2.9 °F /  -19.4 °C -4.1 °F /  -20.1 °C 1010.7in /  34222.3hPa ESE 3.9mph /  6.3km/h 11.3mph /  18.2km/h 92% 0.0in /  0mm WeatherDisplay:10.37 W/m2 FEW
15:03 -2.9 °F /  -19.4 °C -4.1 °F /  -20.1 °C 1010.4in /  34212.1hPa Calm     92% 0.0in /  0mm WeatherDisplay:10.37 W/m2 FEW
15:08 -3.0 °F /  -19.4 °C -4.1 °F /  -20.1 °C 1010.4in /  34212.1hPa ESE 2.1mph /  3.4km/h 8.0mph /  12.9km/h 92% 0.0in /  0mm WeatherDisplay:10.37 W/m2 FEW
15:13 -3.0 °F /  -19.4 °C -4.1 °F /  -20.1 °C 1010.4in /  34212.1hPa ESE 2.7mph /  4.3km/h 11.3mph /  18.2km/h 92% 0.0in /  0mm WeatherDisplay:10.37 W/m2 FEW
15:18 -3.1 °F /  -19.5 °C -4.2 °F /  -20.1 °C 1010.4in /  34212.1hPa ESE 7.7mph /  12.4km/h 11.3mph /  18.2km/h 92% 0.0in /  0mm WeatherDisplay:10.37 W/m2 FEW
15:23 -3.1 °F /  -19.5 °C -4.2 °F /  -20.1 °C 1010.4in /  34212.1hPa ESE 4.5mph /  7.2km/h 5.6mph /  9km/h 92% 0.0in /  0mm WeatherDisplay:10.37 W/m2 FEW
15:28 -3.2 °F /  -19.6 °C -4.3 °F /  -20.2 °C 1010.4in /  34212.1hPa SE 3.2mph /  5.1km/h 4.8mph /  7.7km/h 92% 0.0in /  0mm WeatherDisplay:10.37 W/m2 FEW
15:33 -3.2 °F /  -19.6 °C -4.3 °F /  -20.2 °C 1010.4in /  34212.1hPa SE 3.4mph /  5.5km/h 4.8mph /  7.7km/h 92% 0.0in /  0mm WeatherDisplay:10.37 W/m2 FEW
15:38 -3.2 °F /  -19.6 °C -4.3 °F /  -20.2 °C 1010.4in /  34212.1hPa Calm   1.9mph /  3.1km/h 92% 0.0in /  0mm WeatherDisplay:10.37 W/m2 FEW
15:43 -3.2 °F /  -19.6 °C -4.3 °F /  -20.2 °C 1010.4in /  34212.1hPa Calm   5.6mph /  9km/h 92% 0.0in /  0mm WeatherDisplay:10.37 W/m2 FEW
15:48 -3.2 °F /  -19.6 °C -4.3 °F /  -20.2 °C 1010.4in /  34212.1hPa SE 1.8mph /  2.9km/h 3.7mph /  6km/h 92% 0.0in /  0mm WeatherDisplay:10.37 W/m2 FEW
15:53 -3.2 °F /  -19.6 °C -4.2 °F /  -20.1 °C 1010.0in /  34198.6hPa Calm     93% 0.0in /  0mm WeatherDisplay:10.37 W/m2 FEW
15:58 -3.2 °F /  -19.6 °C -4.2 °F /  -20.1 °C 1010.0in /  34198.6hPa SE 2.4mph /  3.9km/h 5.6mph /  9km/h 93% 0.0in /  0mm WeatherDisplay:10.37 W/m2 FEW
16:03 -3.2 °F /  -19.6 °C -4.2 °F /  -20.1 °C 1010.0in /  34198.6hPa Calm     93% 0.0in /  0mm WeatherDisplay:10.37 W/m2 FEW
16:08 -3.2 °F /  -19.6 °C -4.2 °F /  -20.1 °C 1010.0in /  34198.6hPa Calm     93% 0.0in /  0mm WeatherDisplay:10.37 W/m2 FEW
16:13 -3.2 °F /  -19.6 °C -4.2 °F /  -20.1 °C 1010.0in /  34198.6hPa SE 0.5mph /  0.8km/h 4.8mph /  7.7km/h 93% 0.0in /  0mm WeatherDisplay:10.37 W/m2 FEW
16:18 -3.2 °F /  -19.6 °C -4.2 °F /  -20.1 °C 1010.0in /  34198.6hPa Calm     93% 0.0in /  0mm WeatherDisplay:10.37 W/m2 FEW
16:23 -3.3 °F /  -19.6 °C -4.2 °F /  -20.1 °C 1010.0in /  34198.6hPa SE 1.1mph /  1.8km/h 3.7mph /  6km/h 93% 0.0in /  0mm WeatherDisplay:10.37 W/m2 FEW
16:28 -3.3 °F /  -19.6 °C -4.2 °F /  -20.1 °C 1010.0in /  34198.6hPa Calm     93% 0.0in /  0mm WeatherDisplay:10.37 W/m2 FEW
16:33 -3.3 °F /  -19.6 °C -4.2 °F /  -20.1 °C 1010.0in /  34198.6hPa Calm     93% 0.0in /  0mm WeatherDisplay:10.37 W/m2 FEW
16:38 -3.3 °F /  -19.6 °C -4.3 °F /  -20.2 °C 1010.0in /  34198.6hPa SE 1.1mph /  1.8km/h 3.7mph /  6km/h 93% 0.0in /  0mm WeatherDisplay:10.37 W/m2 FEW
16:43 -3.3 °F /  -19.6 °C -4.3 °F /  -20.2 °C 1010.0in /  34198.6hPa Calm     93% 0.0in /  0mm WeatherDisplay:10.37 W/m2 FEW
16:48 -3.3 °F /  -19.6 °C -4.3 °F /  -20.2 °C 1010.0in /  34198.6hPa Calm     93% 0.0in /  0mm WeatherDisplay:10.37 W/m2 FEW
16:53 -3.4 °F /  -19.7 °C -4.3 °F /  -20.2 °C 1010.0in /  34198.6hPa Calm   3.7mph /  6km/h 93% 0.0in /  0mm WeatherDisplay:10.37 W/m2 FEW
16:58 -3.4 °F /  -19.7 °C -4.3 °F /  -20.2 °C 1010.0in /  34198.6hPa Calm     93% 0.3in /  7.62mm WeatherDisplay:10.37 W/m2 RA
17:03 -3.4 °F /  -19.7 °C -4.3 °F /  -20.2 °C 1010.0in /  34198.6hPa Calm     93% 0.3in /  7.62mm WeatherDisplay:10.37 W/m2 RA
17:08 -3.4 °F /  -19.7 °C -4.3 °F /  -20.2 °C 1010.0in /  34198.6hPa Calm   3.7mph /  6km/h 93% 0.3in /  7.62mm WeatherDisplay:10.37 W/m2 FEW
17:13 -3.4 °F /  -19.7 °C -4.4 °F /  -20.2 °C 1010.0in /  34198.6hPa Calm     93% 0.3in /  7.62mm WeatherDisplay:10.37 W/m2 FEW
17:18 -3.4 °F /  -19.7 °C -4.4 °F /  -20.2 °C 1009.7in /  34188.4hPa SE 1.3mph /  2.1km/h 3.7mph /  6km/h 93% 0.3in /  7.62mm WeatherDisplay:10.37 W/m2 FEW
17:23 -3.4 °F /  -19.7 °C -4.4 °F /  -20.2 °C 1009.7in /  34188.4hPa Calm     93% 0.3in /  7.62mm WeatherDisplay:10.37 W/m2 FEW
17:28 -3.4 °F /  -19.7 °C -4.4 °F /  -20.2 °C 1010.0in /  34198.6hPa Calm     93% 0.3in /  7.62mm WeatherDisplay:10.37 W/m2 FEW
17:33 -3.5 °F /  -19.7 °C -4.4 °F /  -20.2 °C 1009.7in /  34188.4hPa Calm     93% 0.3in /  7.62mm WeatherDisplay:10.37 W/m2 FEW
17:38 -3.5 °F /  -19.7 °C -4.4 °F /  -20.2 °C 1009.7in /  34188.4hPa SE 0.5mph /  0.8km/h 5.6mph /  9km/h 93% 0.3in /  7.62mm WeatherDisplay:10.37 W/m2 FEW
17:43 -3.5 °F /  -19.7 °C -4.4 °F /  -20.2 °C 1009.7in /  34188.4hPa Calm     93% 0.3in /  7.62mm WeatherDisplay:10.37 W/m2 FEW
17:48 -3.5 °F /  -19.7 °C -4.4 °F /  -20.2 °C 1009.7in /  34188.4hPa SE 2.6mph /  4.2km/h 5.6mph /  9km/h 93% 0.3in /  7.62mm WeatherDisplay:10.37 W/m2 FEW
17:53 -3.5 °F /  -19.7 °C -4.4 °F /  -20.2 °C 1009.7in /  34188.4hPa SE 0.8mph /  1.3km/h 5.6mph /  9km/h 93% 0.3in /  7.62mm WeatherDisplay:10.37 W/m2 FEW
17:58 -3.6 °F /  -19.8 °C -4.5 °F /  -20.3 °C 1009.7in /  34188.4hPa SE 2.1mph /  3.4km/h   93% 0.0in /  0mm WeatherDisplay:10.37 W/m2 FEW
18:03 -3.6 °F /  -19.8 °C -4.5 °F /  -20.3 °C 1009.7in /  34188.4hPa SE 2.1mph /  3.4km/h 6.4mph /  10.3km/h 93% 0.0in /  0mm WeatherDisplay:10.37 W/m2 FEW
18:08 -3.6 °F /  -19.8 °C -4.5 °F /  -20.3 °C 1009.7in /  34188.4hPa Calm   5.6mph /  9km/h 93% 0.0in /  0mm WeatherDisplay:10.37 W/m2 FEW
18:13 -3.6 °F /  -19.8 °C -4.5 °F /  -20.3 °C 1009.7in /  34188.4hPa SE 0.5mph /  0.8km/h 4.8mph /  7.7km/h 93% 0.0in /  0mm WeatherDisplay:10.37 W/m2 FEW
18:18 -3.6 °F /  -19.8 °C -4.5 °F /  -20.3 °C 1009.7in /  34188.4hPa SE 1.0mph /  1.6km/h 5.6mph /  9km/h 93% 0.0in /  0mm WeatherDisplay:10.37 W/m2 FEW
18:23 -3.6 °F /  -19.8 °C -4.5 °F /  -20.3 °C 1009.7in /  34188.4hPa Calm     93% 0.0in /  0mm WeatherDisplay:10.37 W/m2 FEW
18:28 -3.6 °F /  -19.8 °C -4.5 °F /  -20.3 °C 1009.7in /  34188.4hPa SE 0.6mph /  1km/h 3.7mph /  6km/h 93% 0.0in /  0mm WeatherDisplay:10.37 W/m2 FEW
18:33 -3.6 °F /  -19.8 °C -4.5 °F /  -20.3 °C 1009.7in /  34188.4hPa Calm     93% 0.0in /  0mm WeatherDisplay:10.37 W/m2 FEW
18:38 -3.6 °F /  -19.8 °C -4.5 °F /  -20.3 °C 1009.7in /  34188.4hPa Calm     93% 0.0in /  0mm WeatherDisplay:10.37 W/m2 FEW
18:43 -3.6 °F /  -19.8 °C -4.5 °F /  -20.3 °C 1009.7in /  34188.4hPa SE 1.9mph /  3.1km/h 1.9mph /  3.1km/h 93% 0.0in /  0mm WeatherDisplay:10.37 W/m2 FEW
18:48 -3.6 °F /  -19.8 °C -4.5 °F /  -20.3 °C 1009.4in /  34178.3hPa Calm     93% 0.0in /  0mm WeatherDisplay:10.37 W/m2 FEW
18:53 -3.6 °F /  -19.8 °C -4.5 °F /  -20.3 °C 1009.4in /  34178.3hPa Calm     93% 0.0in /  0mm WeatherDisplay:10.37 W/m2 FEW
18:58 -3.6 °F /  -19.8 °C -4.5 °F /  -20.3 °C 1009.4in /  34178.3hPa Calm   3.7mph /  6km/h 93% 0.0in /  0mm WeatherDisplay:10.37 W/m2 FEW
19:03 -3.6 °F /  -19.8 °C -4.5 °F /  -20.3 °C 1009.4in /  34178.3hPa Calm   3.7mph /  6km/h 93% 0.0in /  0mm WeatherDisplay:10.37 W/m2 FEW
19:08 -3.6 °F /  -19.8 °C -4.5 °F /  -20.3 °C 1009.4in /  34178.3hPa Calm     93% 0.0in /  0mm WeatherDisplay:10.37 W/m2 FEW
19:13 -3.6 °F /  -19.8 °C -4.5 °F /  -20.3 °C 1009.4in /  34178.3hPa Calm     93% 0.0in /  0mm WeatherDisplay:10.37 W/m2 FEW
19:18 -3.6 °F /  -19.8 °C -4.5 °F /  -20.3 °C 1009.4in /  34178.3hPa SE 0.8mph /  1.3km/h   93% 0.0in /  0mm WeatherDisplay:10.37 W/m2 FEW
19:23 -3.6 °F /  -19.8 °C -4.5 °F /  -20.3 °C 1009.4in /  34178.3hPa Calm     93% 0.0in /  0mm WeatherDisplay:10.37 W/m2 FEW
19:28 -3.6 °F /  -19.8 °C -4.5 °F /  -20.3 °C 1009.4in /  34178.3hPa Calm     93% 0.0in /  0mm WeatherDisplay:10.37 W/m2 FEW
19:33 -3.6 °F /  -19.8 °C -4.6 °F /  -20.3 °C 1009.4in /  34178.3hPa SE 1.4mph /  2.3km/h 1.9mph /  3.1km/h 93% 0.0in /  0mm WeatherDisplay:10.37 W/m2 FEW
19:38 -3.6 °F /  -19.8 °C -4.6 °F /  -20.3 °C 1009.4in /  34178.3hPa Calm     93% 0.0in /  0mm WeatherDisplay:10.37 W/m2 FEW
19:43 -3.6 °F /  -19.8 °C -4.6 °F /  -20.3 °C 1009.4in /  34178.3hPa Calm     93% 0.0in /  0mm WeatherDisplay:10.37 W/m2 FEW
19:48 -3.6 °F /  -19.8 °C -4.6 °F /  -20.3 °C 1009.4in /  34178.3hPa Calm     93% 0.0in /  0mm WeatherDisplay:10.37 W/m2 FEW
19:53 -3.6 °F /  -19.8 °C -4.6 °F /  -20.3 °C 1009.4in /  34178.3hPa Calm   3.7mph /  6km/h 93% 0.0in /  0mm WeatherDisplay:10.37 W/m2 FEW
19:58 -3.6 °F /  -19.8 °C -4.6 °F /  -20.3 °C 1009.4in /  34178.3hPa Calm     93% 0.0in /  0mm WeatherDisplay:10.37 W/m2 FEW
20:03 -3.7 °F /  -19.8 °C -4.6 °F /  -20.3 °C 1009.4in /  34178.3hPa Calm     93% 0.0in /  0mm WeatherDisplay:10.37 W/m2 FEW
20:08 -3.6 °F /  -19.8 °C -4.6 °F /  -20.3 °C 1009.4in /  34178.3hPa Calm     93% 0.0in /  0mm WeatherDisplay:10.37 W/m2 FEW
20:13 -3.6 °F /  -19.8 °C -4.6 °F /  -20.3 °C 1009.4in /  34178.3hPa Calm     93% 0.0in /  0mm WeatherDisplay:10.37 W/m2 FEW
20:18 -3.7 °F /  -19.8 °C -4.6 °F /  -20.3 °C 1009.4in /  34178.3hPa Calm   5.6mph /  9km/h 93% 0.0in /  0mm WeatherDisplay:10.37 W/m2 FEW
20:23 -3.7 °F /  -19.8 °C -4.6 °F /  -20.3 °C 1009.4in /  34178.3hPa Calm     93% 0.0in /  0mm WeatherDisplay:10.37 W/m2 FEW
20:28 -3.7 °F /  -19.8 °C -4.6 °F /  -20.3 °C 1009.4in /  34178.3hPa Calm     93% 0.0in /  0mm WeatherDisplay:10.37 W/m2 FEW
20:33 -3.7 °F /  -19.8 °C -4.8 °F /  -20.4 °C 1009.4in /  34178.3hPa Calm     92% 0.0in /  0mm WeatherDisplay:10.37 W/m2 FEW
20:38 -3.7 °F /  -19.8 °C -4.8 °F /  -20.4 °C 1009.0in /  34164.7hPa Calm     92% 0.0in /  0mm WeatherDisplay:10.37 W/m2 FEW
20:43 -3.7 °F /  -19.8 °C -4.8 °F /  -20.4 °C 1009.0in /  34164.7hPa Calm     92% 0.0in /  0mm WeatherDisplay:10.37 W/m2 FEW
20:48 -3.7 °F /  -19.8 °C -4.8 °F /  -20.4 °C 1009.0in /  34164.7hPa Calm     92% 0.0in /  0mm WeatherDisplay:10.37 W/m2 FEW
20:53 -3.7 °F /  -19.8 °C -4.8 °F /  -20.4 °C 1009.0in /  34164.7hPa Calm     92% 0.0in /  0mm WeatherDisplay:10.37 W/m2 FEW
20:58 -3.7 °F /  -19.8 °C -4.8 °F /  -20.4 °C 1009.0in /  34164.7hPa Calm   3.2mph /  5.1km/h 92% 0.0in /  0mm WeatherDisplay:10.37 W/m2 FEW
21:03 -3.8 °F /  -19.9 °C -4.9 °F /  -20.5 °C 1009.0in /  34164.7hPa Calm     92% 0.0in /  0mm WeatherDisplay:10.37 W/m2 FEW
21:08 -3.8 °F /  -19.9 °C -4.9 °F /  -20.5 °C 1009.0in /  34164.7hPa Calm     92% 0.0in /  0mm WeatherDisplay:10.37 W/m2 FEW
21:13 -3.8 °F /  -19.9 °C -4.9 °F /  -20.5 °C 1009.0in /  34164.7hPa Calm   5.6mph /  9km/h 92% 0.0in /  0mm WeatherDisplay:10.37 W/m2 FEW
21:18 -3.8 °F /  -19.9 °C -4.9 °F /  -20.5 °C 1009.0in /  34164.7hPa Calm     92% 0.0in /  0mm WeatherDisplay:10.37 W/m2 FEW
21:23 -3.8 °F /  -19.9 °C -3.9 °F /  -19.9 °C 1009.0in /  34164.7hPa Calm     99% 0.0in /  0mm WeatherDisplay:10.37 W/m2 FEW
21:28 -3.8 °F /  -19.9 °C -4.9 °F /  -20.5 °C 1009.0in /  34164.7hPa Calm     92% 0.0in /  0mm WeatherDisplay:10.37 W/m2 FEW
21:33 -3.8 °F /  -19.9 °C -4.9 °F /  -20.5 °C 1009.0in /  34164.7hPa Calm     92% 0.0in /  0mm WeatherDisplay:10.37 W/m2 FEW
21:38 -3.8 °F /  -19.9 °C -4.9 °F /  -20.5 °C 1009.0in /  34164.7hPa Calm     92% 0.0in /  0mm WeatherDisplay:10.37 W/m2 FEW
21:43 -3.9 °F /  -19.9 °C -5.0 °F /  -20.6 °C 1009.0in /  34164.7hPa Calm     92% 0.0in /  0mm WeatherDisplay:10.37 W/m2 FEW
21:48 -3.9 °F /  -19.9 °C -5.0 °F /  -20.6 °C 1009.0in /  34164.7hPa Calm     92% 0.0in /  0mm WeatherDisplay:10.37 W/m2 FEW
21:53 -3.9 °F /  -19.9 °C -5.0 °F /  -20.6 °C 1009.0in /  34164.7hPa Calm     92% 0.0in /  0mm WeatherDisplay:10.37 W/m2 FEW
21:58 -3.9 °F /  -19.9 °C -5.0 °F /  -20.6 °C 1009.0in /  34164.7hPa Calm     92% 0.0in /  0mm WeatherDisplay:10.37 W/m2 FEW
22:03 -3.9 °F /  -19.9 °C -5.0 °F /  -20.6 °C 1009.0in /  34164.7hPa Calm     92% 0.0in /  0mm WeatherDisplay:10.37 W/m2 FEW
22:08 -3.9 °F /  -19.9 °C -5.0 °F /  -20.6 °C 1009.0in /  34164.7hPa Calm     92% 0.0in /  0mm WeatherDisplay:10.37 W/m2 FEW
22:13 -3.9 °F /  -19.9 °C -5.0 °F /  -20.6 °C 1009.0in /  34164.7hPa Calm     92% 0.0in /  0mm WeatherDisplay:10.37 W/m2 FEW
22:18 -3.9 °F /  -19.9 °C -5.0 °F /  -20.6 °C 1009.0in /  34164.7hPa Calm     92% 0.0in /  0mm WeatherDisplay:10.37 W/m2 FEW
22:23 -3.9 °F /  -19.9 °C -4.9 °F /  -20.5 °C 1009.0in /  34164.7hPa Calm     93% 0.0in /  0mm WeatherDisplay:10.37 W/m2 FEW
22:28 -3.9 °F /  -19.9 °C -4.9 °F /  -20.5 °C 1009.0in /  34164.7hPa Calm     93% 0.0in /  0mm WeatherDisplay:10.37 W/m2 FEW
22:33 -3.9 °F /  -19.9 °C -4.9 °F /  -20.5 °C 1009.0in /  34164.7hPa Calm     93% 0.0in /  0mm WeatherDisplay:10.37 W/m2 FEW
22:38 -3.9 °F /  -19.9 °C -5.1 °F /  -20.6 °C 1009.0in /  34164.7hPa Calm     92% 0.0in /  0mm WeatherDisplay:10.37 W/m2 FEW
22:43 -3.9 °F /  -19.9 °C -5.1 °F /  -20.6 °C 1009.0in /  34164.7hPa Calm     92% 0.0in /  0mm WeatherDisplay:10.37 W/m2 FEW
22:48 -3.9 °F /  -19.9 °C -5.1 °F /  -20.6 °C 1009.0in /  34164.7hPa Calm     92% 0.0in /  0mm WeatherDisplay:10.37 W/m2 FEW
22:54 -4.0 °F /  -20 °C -4.9 °F /  -20.5 °C 1009.0in /  34164.7hPa Calm     93% 0.0in /  0mm WeatherDisplay:10.37 W/m2 FEW
22:59 -4.0 °F /  -20 °C -4.9 °F /  -20.5 °C 1009.0in /  34164.7hPa Calm     93% 0.0in /  0mm WeatherDisplay:10.37 W/m2 FEW
23:04 -4.0 °F /  -20 °C -4.9 °F /  -20.5 °C 1009.0in /  34164.7hPa Calm     93% 0.0in /  0mm WeatherDisplay:10.37 W/m2 FEW
23:09 -4.0 °F /  -20 °C -4.9 °F /  -20.5 °C 1009.0in /  34164.7hPa Calm     93% 0.0in /  0mm WeatherDisplay:10.37 W/m2 FEW
23:14 -4.0 °F /  -20 °C -4.9 °F /  -20.5 °C 1008.7in /  34154.6hPa Calm     93% 0.0in /  0mm WeatherDisplay:10.37 W/m2 FEW
23:19 -4.0 °F /  -20 °C -4.9 °F /  -20.5 °C 1008.7in /  34154.6hPa Calm     93% 0.0in /  0mm WeatherDisplay:10.37 W/m2 FEW
23:24 -4.1 °F /  -20.1 °C -5.0 °F /  -20.6 °C 1008.7in /  34154.6hPa Calm     93% 0.0in /  0mm WeatherDisplay:10.37 W/m2 FEW
23:29 -4.1 °F /  -20.1 °C -5.0 °F /  -20.6 °C 1008.7in /  34154.6hPa Calm     93% 0.0in /  0mm WeatherDisplay:10.37 W/m2 FEW
23:34 -4.1 °F /  -20.1 °C -5.0 °F /  -20.6 °C 1008.7in /  34154.6hPa Calm     93% 0.0in /  0mm WeatherDisplay:10.37 W/m2 FEW
23:39 -4.1 °F /  -20.1 °C -5.0 °F /  -20.6 °C 1008.7in /  34154.6hPa Calm     93% 0.0in /  0mm WeatherDisplay:10.37 W/m2 FEW
23:44 -4.1 °F /  -20.1 °C -5.0 °F /  -20.6 °C 1008.7in /  34154.6hPa Calm     93% 0.0in /  0mm WeatherDisplay:10.37 W/m2 FEW
23:49 -4.1 °F /  -20.1 °C -5.0 °F /  -20.6 °C 1008.7in /  34154.6hPa Calm     93% 0.0in /  0mm WeatherDisplay:10.37 W/m2 FEW
23:54 -4.1 °F /  -20.1 °C -5.0 °F /  -20.6 °C 1008.7in /  34154.6hPa Calm     93% 0.0in /  0mm WeatherDisplay:10.37 W/m2 FEW
23:59 -4.0 °F /  -20 °C -4.9 °F /  -20.5 °C 1008.7in /  34154.6hPa Calm     93% 0.0in /  0mm WeatherDisplay:10.37 W/m2 FEW
Tuulensuunkaari, Veikkola, Suomi
Compliments of Weather Underground - 2.5 mb